Regional Weather Roundup
Issued by NWS Columbia, SC

Home | Current Version | Previous Version | Text Only | Print | Product List | Glossary On
Versions: 1 2 3 4 5 6 7 8 9 10 11 12 13 14 15 16 17 18 19 20 21 22 23 24 25 26 27 28 29 30 31 32 33 34 35 36 37 38 39 40 41 42 43 44 45 46 47 48 49 50
000
ASUS42 KCAE 300610
RWRCAE
REGIONAL WEATHER ROUNDUP
NATIONAL WEATHER SERVICE COLUMBIA SC
200 AM EDT TUE JUN 30 2015

NOTE: "FAIR" INDICATES FEW OR NO CLOUDS BELOW 12,000 FEET WITH NO
SIGNIFICANT WEATHER AND/OR OBSTRUCTIONS TO VISIBILITY.

NOT ALL STATIONS ARE QUALITY CONTROLLED BY THE NATIONAL
WEATHER SERVICE. USE DATA WITH CAUTION...ESPECIALLY
DEWPOINT OBSERVATIONS.

SCZ001>056-GAZ040-063>065-077-300700-
...UPSTATE SOUTH CAROLINA...

CITY           SKY/WX    TMP DP  RH WIND       PRES   REMARKS
ANDERSON       CLEAR     72  63  73 S6        29.98F
6HR MIN TEMP:  70; 6HR MAX TEMP:  84;

SPARTANBURG      N/A     73  63  68 SW5       29.97F
CLEMSON        CLEAR     74  63  68 W5        30.00F
6HR MIN TEMP:  74; 6HR MAX TEMP:  82;

GREENVILLE     CLEAR     74  61  63 SW5       29.99F
6HR MIN TEMP:  74; 6HR MAX TEMP:  82;

GREENWOOD      CLEAR     73  62  68 SW5       30.00F
6HR MIN TEMP:  72; 6HR MAX TEMP:  81;

GREER          CLEAR     75  62  64 SW8       29.97F
6HR MIN TEMP:  75; 6HR MAX TEMP:  82;

ROCK HILL      CLEAR     69  61  75 SW6       29.97S
6HR MIN TEMP:  68; 6HR MAX TEMP:  82;

CHESTER        CLEAR     73  59  60 CALM      29.98S
LAURENS        CLEAR     70  68  94 SW5       29.98S


...CENTRAL SOUTH CAROLINA...

CITY           SKY/WX    TMP DP  RH WIND       PRES   REMARKS
COLUMBIA APT   CLEAR     72  62  71 CALM      29.96F
6HR MIN TEMP:  72; 6HR MAX TEMP:  86;

COLUMBIA OWENS CLEAR     74  62  66 CALM      29.98S
6HR MIN TEMP:  73; 6HR MAX TEMP:  87;

DARLINGTON     CLEAR     72  63  73 S5        29.97S
6HR MIN TEMP:  72; 6HR MAX TEMP:  82;

FLORENCE       CLEAR     72  63  73 S6        29.96F
6HR MIN TEMP:  71; 6HR MAX TEMP:  86;

MCENTIRE ANGB  CLEAR     66  62  87 CALM      29.97S
6HR MIN TEMP:  65; 6HR MAX TEMP:  84;

ORANGEBURG     CLEAR     69  63  81 S5        29.99S
6HR MIN TEMP:  69; 6HR MAX TEMP:  84;

SUMTER SHAW    CLEAR     73  60  63 S7        29.95S
6HR MIN TEMP:  73; 6HR MAX TEMP:  84;

NEWBERRY       CLEAR     73 N/A N/A SW6       30.00F
AIKEN          FAIR     N/A N/A N/A CALM      30.02F
BARNWELL       FAIR      75  66  73 SW5       30.00S
MANNING        FAIR      72  63  73 CALM      29.98S
CAMDEN         FAIR      73  61  64 CALM      29.97S
LANCASTER      CLEAR     72  63  73 W3        29.97S
WINNSBORO      CLEAR     73  61  64 SW6       29.98R


...EASTERN AND COASTAL SOUTH CAROLINA...

CITY           SKY/WX    TMP DP  RH WIND       PRES   REMARKS
MYRTLE BEACH   CLEAR     77  70  78 W9        29.99F
6HR MIN TEMP:  77; 6HR MAX TEMP:  84;

N MYRTLE BCH   CLEAR     77  68  73 SW7       29.97F
6HR MIN TEMP:  76; 6HR MAX TEMP:  83;

CONWAY         FAIR      72  72 100 SW3       29.98S
MARION         FAIR      72  64  78 S5        29.97F
HARTSVILLE     FAIR      68  59  73 SW3       29.96S
FLORENCE       CLEAR     72  63  73 S6        29.96F
6HR MIN TEMP:  71; 6HR MAX TEMP:  86;

DARLINGTON     CLEAR     72  63  73 S5        29.97S
6HR MIN TEMP:  72; 6HR MAX TEMP:  82;

CHARLESTON APT PTCLDY    77  72  84 SW7       29.99F
6HR MIN TEMP:  76; 6HR MAX TEMP:  82;

MOUNT PLEASANT LGT RAIN  79  73  83 SW5       29.99S
WALTERBORO     CLEAR     72  64  78 SW5       30.01S
BEAUFORT       CLEAR     75  68  78 SW6       30.00F
6HR MIN TEMP:  75; 6HR MAX TEMP:  84;



...EASTERN GEORGIA...

CITY           SKY/WX    TMP DP  RH WIND       PRES   REMARKS
AUGUSTA BUSH F CLEAR     73  63  70 SW8       29.98S
6HR MIN TEMP:  67; 6HR MAX TEMP:  87;

AUGUSTA DANIEL CLEAR     76  62  62 CALM      30.00S
6HR MIN TEMP:  76; 6HR MAX TEMP:  87;

THOMSON        CLEAR     71  67  87 CALM      30.04S
6HR MIN TEMP:  71; 6HR MAX TEMP:  86;

WASHINGTON     FAIR      77  70  78 SW5       30.00S
CLAXTON        FAIR      68  68 100 CALM      30.02S
SYLVANIA       CLEAR     72  70  94 CALM      30.01F
6HR MIN TEMP:  72; 6HR MAX TEMP:  82;

STATESBORO     CLEAR     74  69  85 CALM      30.01S
6HR MIN TEMP:  74; 6HR MAX TEMP:  83;

SAVANNAH       PTCLDY    74  67  78 SW8       30.02S
6HR MIN TEMP:  74; 6HR MAX TEMP:  83;



...SOUTHERN NORTH CAROLINA...

CITY           SKY/WX    TMP DP  RH WIND       PRES   REMARKS
CHARLOTTE      PTCLDY    74  59  59 SW6       29.96F
6HR MIN TEMP:  73; 6HR MAX TEMP:  82;

MONROE         CLEAR     70  59  68 CALM      29.96F
6HR MIN TEMP:  70; 6HR MAX TEMP:  82;

WADESBORO      CLEAR     70  61  74 CALM      29.95S
6HR MIN TEMP:  70; 6HR MAX TEMP:  83;

ROCKINGHAM     CLEAR     72  60  67 CALM      29.95S
6HR MIN TEMP:  71; 6HR MAX TEMP:  83;

RUTHERFORDTON  CLEAR     71  62  74 SW3       29.97F
6HR MIN TEMP:  70; 6HR MAX TEMP:  79;

ASHEVILLE      PTCLDY    68  61  78 S5        30.03F
6HR MIN TEMP:  67; 6HR MAX TEMP:  75;


$$



USA.gov is the U.S. government's official web portal to all federal, state and local government web resources and services.